Jerome, ID

8:03 AM MDT on August 29, 2016 (GMT -0600)
Jerome County

Weather History for KJER - March, 2014

Change the Weather History Date:

Sunday, March 2, 2014

  Actual Average Record
Temperature  
Mean Temperature 44 °F 36 °F  
Max Temperature 53 °F 45 °F 66 °F (1992)
Min Temperature 34 °F 26 °F 0 °F (1993)
Degree Days  
Heating Degree Days 21 29  
Month to date heating degree days 43 59  
Since 1 July heating degree days 4711 4946  
Cooling Degree Days 0 0  
Month to date cooling degree days 0 0  
Year to date cooling degree days 0 0  
Moisture  
Dew Point 37 °F    
Average Humidity 77    
Maximum Humidity 100    
Minimum Humidity 54    
Precipitation  
Precipitation 0.06 in 0.02 in 0.74 in (1974)
Month to date precipitation 0.15 0.05  
Year to date precipitation 2.49 1.99  
Sea Level Pressure  
Sea Level Pressure 29.93 in    
Wind  
Wind Speed 7 mph (SE)    
Max Wind Speed 16 mph    
Max Gust Speed 23 mph    
Visibility 10 miles    
Events Rain    
T = Trace of Precipitation, MM = Missing Value Source: NWS Daily Summary

Daily Weather History Graph

Daily Weather History Graph

Search for Another Location

Airport or City:

Trip Planner

Search our weather history database for the weather conditions in past years. The results will help you decide how hot, cold, wet, or windy it might be!

Date:

Astronomy

Mar. 02, 2014 Rise Set
Actual Time 7:11 AM MST 6:28 PM MST
Civil Twilight 6:43 AM MST 6:57 PM MST
Nautical Twilight 6:10 AM MST 7:29 PM MST
Astronomical Twilight 5:38 AM MST 8:02 PM MST
Moon 7:42 AM MST (3/2) 8:33 PM MST (3/2)
Length of Visible Light 12h 13m
Length of Day
11h 17m
Waxing Crescent, 3% of the Moon is Illuminated
Mar 2
Waxing Crescent
Mar 8
First Quarter
Mar 16
Full
Mar 23
Last Quarter
Mar 30
New

Hourly Weather History & Observations

Time (MST) Temp. Windchill Dew Point Humidity Pressure Visibility Wind Dir Wind Speed Gust Speed Precip Events Conditions
12:53 AM 37.9 °F 33.5 °F 37.0 °F 97% 29.85 in 10.0 mi South 5.8 mph - N/A   Overcast
1:53 AM 39.0 °F 35.7 °F 37.0 °F 93% 29.86 in 10.0 mi SSE 4.6 mph - 0.01 in Rain Light Rain
2:53 AM 37.9 °F 32.7 °F 37.0 °F 97% 29.86 in 10.0 mi East 6.9 mph - 0.00 in   Overcast
3:53 AM 37.0 °F 32.4 °F 35.1 °F 93% 29.87 in 10.0 mi ENE 5.8 mph - N/A   Mostly Cloudy
4:53 AM 36.0 °F 29.0 °F 36.0 °F 100% 29.88 in 10.0 mi ENE 9.2 mph - 0.00 in Rain Light Rain
5:53 AM 36.0 °F 29.0 °F 34.0 °F 93% 29.90 in 10.0 mi ENE 9.2 mph - 0.00 in   Overcast
6:53 AM 34.0 °F 26.0 °F 32.0 °F 92% 29.91 in 10.0 mi East 10.4 mph - N/A   Clear
7:53 AM 35.1 °F 27.4 °F 33.1 °F 92% 29.93 in 10.0 mi East 10.4 mph - N/A   Clear
8:53 AM 39.9 °F 35.8 °F 36.0 °F 86% 29.95 in 10.0 mi SE 5.8 mph - N/A   Mostly Cloudy
9:53 AM 43.0 °F - 35.1 °F 74% 29.96 in 10.0 mi Calm Calm - N/A   Overcast
10:53 AM 45.0 °F - 34.0 °F 65% 29.97 in 10.0 mi Calm Calm - N/A   Overcast
11:53 AM 50.0 °F - 39.0 °F 66% 29.95 in 10.0 mi SSE 8.1 mph - N/A   Clear
12:53 PM 51.1 °F - 36.0 °F 56% 29.93 in 10.0 mi SSW 10.4 mph - N/A   Mostly Cloudy
1:53 PM 51.1 °F - 36.0 °F 56% 29.92 in 10.0 mi Variable 6.9 mph - N/A   Overcast
2:53 PM 51.1 °F - 35.1 °F 54% 29.91 in 10.0 mi WSW 12.7 mph - N/A   Overcast
3:53 PM 51.1 °F - 39.0 °F 63% 29.92 in 10.0 mi WNW 8.1 mph - N/A   Mostly Cloudy
4:53 PM 46.9 °F - 39.9 °F 77% 29.94 in 10.0 mi West 8.1 mph - 0.00 in   Mostly Cloudy
5:53 PM 44.1 °F 42.5 °F 42.1 °F 93% 29.96 in 10.0 mi East 3.5 mph - 0.03 in   Overcast
6:53 PM 46.0 °F 40.6 °F 37.9 °F 73% 29.98 in 10.0 mi SSW 11.5 mph 16.1 mph 0.00 in Rain Light Rain
7:53 PM 43.0 °F 38.8 °F 41.0 °F 93% 30.00 in 10.0 mi South 6.9 mph - 0.01 in Rain Light Rain
8:53 PM 44.1 °F 40.1 °F 39.9 °F 85% 29.98 in 10.0 mi SE 6.9 mph - 0.01 in   Overcast
9:53 PM 43.0 °F 37.2 °F 39.9 °F 89% 29.97 in 10.0 mi SE 10.4 mph - N/A   Overcast
10:53 PM 44.1 °F 39.5 °F 39.0 °F 82% 29.96 in 10.0 mi South 8.1 mph - 0.00 in   Overcast
11:53 PM 45.0 °F 40.6 °F 37.0 °F 74% 29.96 in 10.0 mi SW 8.1 mph - N/A   Overcast